Flag for U.S.A. Weather past 2 weeks in Anchorage, Alaska, U.S.A.

Now
75 °F

Sunny.


Feels Like: 78 °F
Forecast: 59 / 71 °F
Wind: 3 mph from Northwest

Location: Lake Hood Seaplane

Current Time: Aug 4, 2015 at 7:05:08 PM

Latest Report: Aug 4, 2015 at 5:53 PM


Visibility: 10 mi

Pressure: 29.87 "Hg

Humidity: 43%

Dew point: 51 °F

Location of AnchorageLocation

Historic Weather in Anchorage — Graph

°F

Anchorage temperature yesterday

Maximum temperature yesterday: 76 °F (at 3:53 PM)
Minimum temperature yesterday: 57 °F (at 4:53 AM)
Average temperature yesterday: 66 °F

Past Weeks' High & Low Weather Summary

 TemperatureHumidityPressure
High76 °F (Aug 1, 3:53 PM)94% (Jul 25, 10:59 PM)30.12 "Hg (Jul 25, 10:59 PM)
Low53 °F (Jul 24, 4:53 AM)33% (Aug 1, 6:53 PM)29.55 "Hg (Jul 22, 8:53 PM)
Average62 °F71%29.88 "Hg
* Reported Jul 20 5:53 PM — Aug 4 5:53 PM, Anchorage, Weather by CustomWeather, © 2015

Note: Actual official high and low records may vary slightly from our data, if they occured in-between our weather recording intervals... More about our weather records

Advertising

Anchorage weather history for previous 24 hours

 ConditionsComfort  
Time TempWeatherWind HumidityBarometerVisibility
5:53 PM
Tue, Aug 4
75 °FSunny.3 mph43%29.87 "Hg10 mi
4:53 PM74 °FSunny.3 mph45%29.88 "Hg10 mi
3:53 PM75 °FSunny.5 mph45%29.90 "Hg10 mi
2:53 PM73 °FSunny.5 mph48%29.92 "Hg10 mi
1:53 PM72 °FSunny.No wind49%29.94 "Hg10 mi
12:53 PM68 °FSunny.3 mph57%29.95 "Hg10 mi
11:53 AM67 °FSunny.6 mph61%29.97 "Hg10 mi
10:53 AM67 °FSunny.5 mph61%29.97 "Hg10 mi
9:53 AM65 °FSunny.No wind63%29.98 "Hg10 mi
8:53 AM62 °FSunny.No wind70%29.99 "Hg10 mi
7:53 AM60 °FSunny.No wind78%30.00 "Hg10 mi
6:53 AM58 °FSunny.No wind87%30.01 "Hg10 mi
5:53 AM58 °FClear.5 mph84%30.01 "Hg10 mi
4:53 AM58 °FClear.No wind78%30.01 "Hg10 mi
3:53 AM59 °FClear.No wind75%30.02 "Hg10 mi
2:53 AM60 °FClear.3 mph78%30.02 "Hg10 mi
1:53 AM62 °FClear.3 mph75%30.03 "Hg10 mi
12:53 AM63 °FClear.5 mph70%30.02 "Hg10 mi
11:53 PM
Mon, Aug 3
64 °FClear.No wind63%30.02 "Hg10 mi
10:53 PM64 °FSunny.No wind75%30.00 "Hg10 mi
9:53 PM69 °FSunny.No wind59%30.00 "Hg10 mi
8:53 PM73 °FSunny.3 mph46%30.00 "Hg10 mi
7:53 PM73 °FSunny.6 mph44%30.01 "Hg10 mi
Weather by CustomWeather, © 2015

See weather overviewHow to use our weather pages